Location: Goheenville
(40.9070°N, 79.3720°W)
Time: 10:26:26
(UTC-05:00)

Meteor 2-10 Rocket - Visible Passes

Search period start: 20 February 2018 00:00
Search period end: 02 March 2018 00:00
Orbit: 733 x 885 km, 81.2° (Epoch: 19 February)

Date Brightness Start Highest point End Pass type
(mag) Time Alt. Az. Time Alt. Az. Time Alt. Az.
20 Feb 5.8 04:03:46 10° SE 04:07:28 21° E 04:11:08 10° NE visible
20 Feb 3.8 05:44:25 10° SW 05:49:11 40° WNW 05:53:55 10° N visible
21 Feb 6.2 03:40:43 10° ESE 03:43:21 14° E 03:45:57 10° NE visible
21 Feb 3.4 05:20:58 17° SSW 05:24:49 59° WNW 05:29:47 10° N visible
22 Feb 3.3 04:58:36 39° SSW 05:00:29 85° W 05:05:32 10° N visible
23 Feb 3.6 04:35:40 62° SE 04:36:12 67° E 04:41:11 10° NNE visible
23 Feb 5.1 06:16:53 11° W 06:18:46 13° WNW 06:21:12 10° NW visible
24 Feb 4.4 04:12:26 44° ENE 04:12:26 44° ENE 04:16:43 10° NNE visible
24 Feb 4.7 05:53:38 19° WNW 05:54:15 19° WNW 05:57:47 10° NNW visible
25 Feb 5.3 03:49:00 28° ENE 03:49:00 28° ENE 03:52:08 10° NNE visible
25 Feb 4.4 05:30:12 26° WNW 05:30:12 26° WNW 05:33:59 10° NNW visible
26 Feb 5.9 03:25:27 18° ENE 03:25:27 18° ENE 03:27:23 10° NE visible
26 Feb 4.3 05:06:37 32° NW 05:06:37 32° NW 05:10:00 10° N visible
27 Feb 6.4 03:01:47 12° NE 03:01:47 12° NE 03:02:19 10° NE visible
27 Feb 4.5 04:42:58 33° NNW 04:42:58 33° NNW 04:45:53 10° N visible
28 Feb 4.8 04:19:14 29° N 04:19:14 29° N 04:21:39 10° N visible
01 Mar 5.3 03:55:26 23° NNE 03:55:26 23° NNE 03:57:20 10° NNE visible
01 Mar 5.5 05:36:35 11° NW 05:36:35 11° NW 05:37:01 10° NW visible
